Location: Most
(50.5133°N, 13.6207°E)
Time: 19:40:14
(UTC+02:00)

ISS - Pass Details

Date: 18 May 2019
Orbit: 407 x 410 km, 51.6° (Epoch: 23 May)

Event Time Altitude Azimuth Distance (km) Brightness Sun altitude
Rises 22:51:38 0° 234° (SW) 2,326 0.0 -14.2°
Reaches altitude 10° 22:53:45 10° 228° (SW) 1,468 -1.1 -14.4°
Maximum altitude 22:56:55 46° 154° (SSE) 559 -3.6 -14.6°
Drops below altitude 10° 23:00:07 10° 80° (E) 1,476 -1.2 -14.9°
Sets 23:02:15 0° 74° (ENE) 2,340 -0.1 -15.1°
